Regional Weather Roundup
Issued by NWS Wakefield, VA

Home | Current Version | Previous Version | Text Only | Print | Product List | Glossary On
Versions: 1 2 3 4 5 6 7 8 9 10 11 12 13 14 15 16 17 18 19 20 21 22 23 24 25 26 27 28 29 30 31 32 33 34 35 36 37 38 39 40 41 42 43 44 45 46 47 48 49 50
000
ASUS41 KAKQ 240615
RWRAKQ

REGIONAL WEATHER ROUNDUP
NATIONAL WEATHER SERVICE WAKEFIELD VA
200 AM EDT WED AUG 24 2016

Note: "fair" indicates few or no clouds below 12,000 feet with no
significant weather and/or obstructions to visibility. * = Denotes
station may not report precipitation (e.g., rain,snow,etc.),
thunder or fog.

VAZ042-051-052>054-056-240700-
NORTHERN VIRGINIA

CITY           SKY/WX    TMP DP  RH WIND       PRES   REMARKS
WASH NATIONAL  CLEAR     71  61  70 SW3       30.29F
DULLES         CLEAR     64  60  87 CALM      30.30S
FORT BELVOIR   CLEAR     63  62  94 CALM      30.29S
QUANTICO       CLEAR     70  58  65 W6        30.30S
FREDERICKSBRG* MOCLDY    65  63  94 CALM      30.28F
STAFFORD*      MOCLDY    62  61  97 CALM      30.33F
WARRENTON      MOCLDY    64  59  83 CALM      30.30S
CULPEPER*      MOCLDY    64  63  99 CALM      30.31F
MANASSAS*      CLOUDY    64  63  94 CALM      30.30S
LEESBURG*      CLEAR     68  64  88 S3        30.31S
WINCHESTER     CLEAR     68  63  83 S3        30.28F
FRONT ROYAL*   FAIR      63  63 100 CALM      30.28F
LURAY*         FAIR     N/A N/A N/A CALM      30.30F
$$

VAZ048-049-060>072-079>083-240700-
CENTRAL AND SOUTH CENTRAL VIRGINIA

CITY           SKY/WX    TMP DP  RH WIND       PRES   REMARKS
RICHMOND       CLEAR     65  59  81 CALM      30.29F
CHESTERFIELD*  FAIR      63  48  59 CALM      30.31S
PETERSBURG*    CLEAR    N/A N/A N/A CALM      30.30S
HANOVER        CLEAR     62  59  90 CALM      30.31S
TAPPAHANNOCK*  CLEAR     62  62 100 CALM      30.30F
QUINTON*       FAIR      62  60  96 CALM      30.29F
CHARLOTTSVILLE CLEAR     66  64  93 CALM      30.30F
GORDONSVILLE*  FAIR      63  63 100 CALM      30.30F
ORANGE*          N/A     64  64 100 CALM      30.32F
LOUISA*        CLEAR     63  63 100 CALM      30.29F
BUMPASS*       FAIR      62  62  99 CALM      30.30S
FARMVILLE*     CLOUDY   N/A N/A N/A CALM      30.28F
CREWE*         FAIR      62  62 100 CALM      30.30S
FORT PICKETT*  NOT AVBL
CHASE CITY*    FAIR      67  64  90 SE5       30.29F
CLARKSVILLE*   FAIR      68  64  88 CALM      30.29S
SOUTH HILL*    CLOUDY    65  61  88 CALM      30.35F
LAWRENCEVILLE* FAIR      64  61  93 CALM      30.29F
EMPORIA*       CLEAR     59  59 100 CALM      30.30F
$$

VAZ088>098-240700-
SOUTHEAST VIRGINIA

CITY           SKY/WX    TMP DP  RH WIND       PRES   REMARKS
NORFOLK        CLEAR     70  62  76 CALM      30.28F
VIRGINIA BEACH CLEAR     71  59  65 CALM      30.27F
NORFOLK NAVAL  CLEAR     67  61  81 CALM      30.29F
WEST POINT*    CLEAR     61  59  94 CALM      30.30F
SALUDA*        FAIR      64  61  90 CALM      30.29S
NEWPORT NEWS   PTCLDY    63  60  90 CALM      30.28F
LANGLEY AFB    CLEAR     65  61  87 W2        30.27F
FORT EUSTIS    CLEAR     65  59  80 CALM      30.26F
WILLIAMSBURG*  CLEAR     68  64  88 CALM      30.29F
HR EXEC AP*    FAIR      55  52  88 CALM      30.30F
FRANKLIN*      CLEAR     60  58  93 CALM      30.29F
US460-WAKEFLD  CLEAR     62  59  90 CALM      30.29F
$$

VAZ020-022-025-037-045-240700-
WEST CENTRAL AND SOUTHWEST VIRGINIA

CITY           SKY/WX    TMP DP  RH WIND       PRES   REMARKS
STAUNTON*      CLEAR     61  60  96 CALM      30.34S
WAYNESBORO*    FAIR      63  60  91 CALM      30.33S
HOT SPRINGS VA PTCLDY    63  59  88 S8        30.40F
LYNCHBURG      PTCLDY    65  62  90 CALM      30.32S
DANVILLE       PTCLDY    65  64  97 CALM      30.29S
SOUTH BOSTON*  FAIR      65  64  96 CALM      30.29S
MARTINSVILLE   CLEAR     61  60  97 CALM      30.33R
ROANOKE        PTCLDY    66  64  93 CALM      30.33S
BLACKSBURG     PTCLDY    61  60  99 CALM      30.38S
DUBLIN*        CLEAR     63  63  99 CALM      30.36S
MARION*        CLEAR     63  61  93 CALM      30.37F
HILLSVILLE*    CLEAR     64  61  90 S6        30.36S
RICHLANDS*     FAIR      68  62  80 SE3       30.33F
WISE*          CLEAR     68  54  60 S7        30.34F
ABINGDON*      CLEAR     68  64  87 CALM      30.32S
$$

MDZ021>025-VAZ099-100-240700-
SOUTHERN MARYLAND AND THE DELMARVA PENINSULA

CITY           SKY/WX    TMP DP  RH WIND       PRES   REMARKS
PATUXENT RIVER CLEAR     65  60  84 SW3       30.28F
BAY BRIDGE APT CLEAR     72  64  78 S6        30.28F
LEONARDTOWN    CLEAR     63  59  88 CALM      30.30F
DOVER          CLEAR     66  64  93 SW5       30.28F
GEORGETOWN     CLEAR     61  59  93 CALM      30.30F
EASTON         CLEAR     67  63  87 CALM      30.33F
CAMBRIDGE      CLEAR     61  59  94 CALM      30.28F
SALISBURY      CLEAR     60  58  92 CALM      30.30S
OCEAN CITY     CLEAR     61  58  90 CALM      30.30S
WALLOPS ISLAND CLEAR     63  60  90 NW3       30.30S
ACCOMACK*      CLEAR     60  58  90 CALM      30.29S
$$

NCZ012>017-030>032-240700-
NORTH CENTRAL AND EASTERN NORTH CAROLINA

CITY           SKY/WX    TMP DP  RH WIND       PRES   REMARKS
ROANOKE RAPIDS FAIR      61  61 100 CALM      30.28F
RALEIGH        PTCLDY    72  62  71 SE7       30.29F
ELIZABETH CITY CLEAR     69  61  75 NE5       30.27F
AHOSKIE*       CLEAR     61  60  95 CALM      30.28F
EDENTON*       CLEAR     65  65 100 CALM      30.27F
CURRITUCK*       N/A     68  62  83 CALM      30.27F
KILL DEVIL HLS CLEAR     71  63  76 CALM      30.25F
MANTEO         CLEAR     70  60  70 NE6       30.26F
CAPE HATTERAS  CLEAR     73  63  70 NE5       30.24F
TARBORO*       FAIR      64  64  98 CALM      30.29  FOG
GOLDSBORO      PTCLDY    68  67  94 CALM      30.26F
WASHINGTON     CLEAR     63  60  91 CALM      30.27F
GREENVILLE     CLEAR     64  63  94 CALM      30.28F
NEW BERN       CLEAR     70  60  70 NE3       30.28F
WILMINGTON     CLEAR     70  65  84 N3        30.25F
$$

VAZ048-240700-
ELSEWHERE

CITY           SKY/WX    TMP DP  RH WIND       PRES   REMARKS
HARRISBURG PA  CLEAR     67  63  87 SE6       30.27F
BALTIMORE      PTCLDY    64  59  83 CALM      30.28F
ANNAPOLIS      CLEAR     70  63  78 CALM      30.28F
ANDREWS AFB    CLEAR     65  58  77 S5        30.28F
PHILADELPHIA   CLEAR     70  62  76 W7        30.29S
HENDERSON NC   CLEAR     65  61  85 CALM      30.29F
GREENSBORO     PTCLDY    72  61  68 SE9       30.28S
ROCKY MOUNT    CLEAR     64  63  96 CALM      30.28F
$$

VAZ100-240700-
MARINE

STATION/POSITION TIME  TEMP    WIND        PRES    WAVE   SWELL
                       AIR SEA DIR/SP/G            HT/PER HT/PER
                 (UTC) (F)     (DEG/KT/KT) (MB)    (FT/S) (FT/S)
BRANDYWINE LGT   0500   72     220/ 11/ 12   N/A
CAPE MAY NJ      0500   70 73  210/  4/  5 1025.4F
LEWES DE         0500   66 75  210/  4/  5 1025.8S
OCEAN-CITY-INLET 0500   70 74   CALM  /  1 1026.3F
WACHAPREAGUE VA  0500   70 79   CALM  /  1 1025.9F
THOMAS POINT MD  0600   75 81  230/  9/ 10 1026.9F
GOOSES REEF MD   0500   78 82  200/ 12/ 14 1026.2F   1/ 2
COVE POINT MD    0500   74     220/  8/ 11 1026.4S
SOLOMONS ISLAND  0500   74 84  190/  7/  9   N/A
BISHOPS HEAD MD  0500   76 80  160/  9/ 12 1026.0F
PINEY POINT MD   0500          200/  7/  9   N/A
POTOMAC MD       0500   77 83  200/ 10/ 12 1025.0F   1/ 3
CAMBRIDGE MD     0500   69 84  180/  3/  5 1025.2F
LEWISETTA VA     0500   72 81  210/  4/  5 1025.5F
RAPPAHANNOCK LGT 0500          120/  9/ 10 1026.3F
STINGRAY PT      0500   77 84   80/  8/ 12 1026.2F   2/ 3
YORKTOWN VA      0500   72 83  190/  3/  5 1025.3F
JAMESTOWN VA     0500   74 84  190/  6/  8   N/A     0
DOMINION TERM VA 0500   76     120/  9/ 11 1025.7F
KIPTOPEKE VA     0500      78   90/  3/  4   N/A
CHES BAY BRIDGE  0500   75 79   70/ 10/ 12 1025.3F
CAPE HENRY VA    0500   75      90/  8/ 11   N/A
WILLOUBY STN VA  0500   76      70/  6/  8   N/A
CAPE HENRY BUOY  0512      79                N/A     3/ 6
1ST LANDING BUOY 0500   76 77  120/  8/ 10 1025.4F   2/ 3
CAPE CHARLES BUO 0526      77                N/A     2/ 7
OFFSHORE WE BUOY 0521      80                N/A     3/ 6
64NM E OF VA BCH 0550   76 81   30/ 12/ 14 1024.4F   3/ 4   2/ 6
DUCK PIER NC     0500   76 78   40/ 12/ 13 1024.4F
44100 DUCK FRF   0505      80                N/A     3/ 6
44056 DUCK FRF   0511      78                N/A     3/ 6
OREGON INLET NC  0500   75 78   30/  8/ 10 1024.6F
HATTERAS NC      0500   75 80   40/  6/  9 1024.2F
DIAMOND SHLS NC  0550   78 84   30/ 12/ 14 1023.5F   3/ 8   2/ 8
CAPE LOOKOUT NC  0600   77      10/  7/  8 1023.7F
$$



USA.gov is the U.S. government's official web portal to all federal, state and local government web resources and services.